sat.trackr.live / text

‹ back to catalog

ONEWEB-0110

NORAD 47260 · 2020-100C

PAYLOAD ACTIVE UNKNOWN

§ Identity

Operator
Country
UK
Launch date
2020-12-18
Launch site
VOSTO
Launch vehicle
Mass (kg)
RCS (m²)

Purposes: comms

External: N2YO · Heavens-Above · Gunter

§ Orbital elements

Epoch: 2026-09-20T00:12:21.794976Z

Period
109.72 min
Inclination
87.8985°
Eccentricity
0.0001971
Mean motion
13.12443803 rev/d
Perigee alt
1,212.2 km
Apogee alt
1,215.2 km
Semi-major
7,591.9 km
B*
-2.0345e-4
RAAN
331.8226°
Arg perigee
90.3606°
Mean anomaly
269.7748°
Rev number
27,716

§ Raw data

ONEWEB-01101 47260U 20100C   26263.00858559 -.00000060  00000+0 -20345-3 0  99952 47260  87.8985 331.8226 0001971  90.3606 269.7748 13.12443803277168

JSON: /api/v1/satellites/47260 · /tle

For live sub-satellite position, see the globe view (requires WebGL).

§ Visibility from observer

Set your observer location to see the next 7 days of passes ≥ 10°. The values pass through the URL so the page stays shareable.

No JS? Fill the form by hand. The geolocation button needs JavaScript.